Regional Weather Roundup
Issued by NWS

Home | Current Version | Previous Version | Graphics & Text | Print | Product List | Glossary On
Versions: 1 2 3 4 5 6 7 8 9 10 11 12 13 14 15 16 17 18 19 20 21 22 23 24 25 26 27 28 29 30 31 32 33 34 35 36 37 38 39 40 41 42 43 44 45 46 47 48 49 50
000
ASUS43 KFSD 241702
RWRSD

WEATHER ROUNDUP FOR SOUTH DAKOTA
NATIONAL WEATHER SERVICE SIOUX FALLS SD
1200 PM CDT SUN JUL 24 2016

NOTE: "FAIR" INDICATES FEW OR NO CLOUDS BELOW 12,000 FEET WITH NO
SIGNIFICANT WEATHER AND/OR OBSTRUCTIONS TO VISIBILITY.


SDZ001>005-009-010-012>017-241800-
NORTHWEST AND NORTH CENTRAL SOUTH DAKOTA

CITY           SKY/WX    TMP DP  RH WIND       PRES   REMARKS
BUFFALO          N/A     79  45  29 VRB3      30.07F
FAITH            N/A     73  48  41 W10       30.14R
MOBRIDGE       CLOUDY    79  57  46 NW12      30.04R
$$

SDZ012>016-024>037-041>051-057-063-072>074-241800-
SOUTHWEST AND SOUTH CENTRAL SOUTH DAKOTA

CITY           SKY/WX    TMP DP  RH WIND       PRES   REMARKS
RAPID CTY ARPT CLOUDY    76  52  43 S7        30.16S
PIERRE         CLOUDY    74  57  55 NW7       30.06R
CUSTER         SUNNY     71  43  36 NE12      30.27F
ELLSWORTH AFB  CLOUDY    77  52  41 S10         N/A
PHILIP         CLOUDY    77  55  46 W7        30.12R
PINE RIDGE     MOSUNNY   82  44  26 E9        30.17R
WINNER         PTSUNNY   79  54  41 CALM      30.11F
$$

SDZ004>011-016>023-039-040-241800-
NORTHEAST SOUTH DAKOTA

CITY           SKY/WX    TMP DP  RH WIND       PRES   REMARKS
ABERDEEN       CLOUDY    78  60  53 N13       29.98F
WATERTOWN      CLOUDY    75  60  59 N10       29.99S
BROOKINGS      CLOUDY    75  61  61 NW6       30.02R
SISSETON         N/A     77  60  55 N20       29.95S
$$

SDZ017-020-022-023-036>040-048>070-241800-
SOUTHEAST SOUTH DAKOTA

CITY           SKY/WX    TMP DP  RH WIND       PRES   REMARKS
SIOUX FALLS    CLOUDY    79  61  53 NW8       30.02R
HURON          CLOUDY    77  60  55 N8        30.03R
CHAMBERLAIN    PTSUNNY   77  58  51 NW6       30.09R
MITCHELL       CLOUDY    77  63  61 N7        30.05R
YANKTON        CLOUDY    79  57  47 NW6       30.01S
$$

ABBREVIATIONS USED IN REMARKS
   TC - TEMPERATURE IN CELSIUS
  WCI - WIND CHILL INDEX
   HX - HEAT INDEX
  VSB - VISIBILITY





USA.gov is the U.S. government's official web portal to all federal, state and local government web resources and services.